Location: Zagreb
(45.8000°N, 16.0000°E)
Time: 00:47:00
(UTC+01:00)

NUDT-PHONESAT - Pass Details

Date: 06 November 2020
Orbit: 481 x 500 km, 97.4° (Epoch: 30 November)

Event Time Altitude Azimuth Distance (km) Brightness Sun altitude
Rises 17:33:29 0° 162° (SSE) 2,586 ? -10.5°
Reaches altitude 10° 17:35:33 10° 161° (SSE) 1,706 ? -10.9°
Maximum altitude 17:39:13 75° 76° (ENE) 525 ? -11.5°
Drops below altitude 10° 17:42:55 10° 351° (N) 1,716 ? -12.1°
Sets 17:45:00 0° 350° (N) 2,602 ? -12.5°
